Gadsden, AL

2:22 AM CDT on April 24, 2018 (GMT -0500)
Gadsden Municipal

Weather History for KGAD - November, 2013

Change the Weather History Date:

Saturday, November 16, 2013

  Actual Average Record
Temperature  
Mean Temperature 57 °F -  
Max Temperature 66 °F 60 °F 77 °F (1931)
Min Temperature 48 °F 37 °F 15 °F (1940)
Degree Days  
Heating Degree Days 8    
Growing Degree Days 7 (Base 50)    
Moisture  
Dew Point 51 °F    
Average Humidity 79    
Maximum Humidity 93    
Minimum Humidity 68    
Precipitation  
Precipitation 0.00 in - - ()
Sea Level Pressure  
Sea Level Pressure 30.13 in    
Wind  
Wind Speed 6 mph (East)    
Max Wind Speed 10 mph    
Max Gust Speed -    
Visibility 7 miles    
Events      
Averages and records for this station are not official NWS values.
T = Trace of Precipitation, MM = Missing Value Source: NWS Daily Summary

Daily Weather History Graph

Daily Weather History Graph

Search for Another Location

Airport or City:

Astronomy

Nov. 16, 2013 Rise Set
Actual Time 6:17 AM CST 4:40 PM CST
Civil Twilight 5:51 AM CST 5:06 PM CST
Nautical Twilight 5:21 AM CST 5:36 PM CST
Astronomical Twilight 4:51 AM CST 6:06 PM CST
Moon 4:13 PM CST (11/16) 5:16 AM CST (11/16)
Length of Visible Light 11h 15m
Length of Day
10h 22m
Waxing Gibbous, 99% of the Moon is Illuminated
Nov 16
Waxing Gibbous
Nov 17
Full
Nov 25
Last Quarter
Dec 2
New
Dec 9
First Quarter

Hourly Weather History & Observations

Time (CST) Temp. Dew Point Humidity Pressure Visibility Wind Dir Wind Speed Gust Speed Precip Events Conditions
12:15 AM 48.2 °F 44.6 °F 87% 30.16 in 3.0 mi East 5.8 mph - N/A   Overcast
12:35 AM 48.2 °F 44.6 °F 87% 30.15 in 3.0 mi East 6.9 mph - N/A   Overcast
12:55 AM 48.2 °F 44.6 °F 87% 30.15 in 3.0 mi East 6.9 mph - N/A   Overcast
1:15 AM 48.2 °F 46.4 °F 93% 30.15 in 3.0 mi ENE 5.8 mph - N/A   Overcast
1:35 AM 50.0 °F 46.4 °F 87% 30.15 in 3.0 mi ENE 5.8 mph - N/A   Overcast
1:55 AM 50.0 °F 46.4 °F 87% 30.15 in 3.0 mi East 4.6 mph - N/A   Overcast
2:15 AM 48.2 °F 44.6 °F 87% 30.14 in 3.0 mi East 4.6 mph - N/A   Overcast
2:35 AM 48.2 °F 44.6 °F 87% 30.13 in 2.5 mi East 4.6 mph - N/A   Overcast
2:55 AM 48.2 °F 46.4 °F 93% 30.13 in 2.5 mi East 5.8 mph - N/A   Overcast
3:15 AM 48.2 °F 46.4 °F 93% 30.13 in 1.8 mi ENE 5.8 mph - N/A   Overcast
3:35 AM 48.2 °F 46.4 °F 93% 30.13 in 1.5 mi ENE 6.9 mph - N/A   Overcast
3:55 AM 48.2 °F 46.4 °F 93% 30.14 in 2.0 mi East 6.9 mph - N/A   Overcast
4:15 AM 48.2 °F 46.4 °F 93% 30.14 in 2.5 mi East 4.6 mph - N/A   Overcast
4:35 AM 50.0 °F 46.4 °F 87% 30.14 in 2.5 mi ENE 6.9 mph - N/A   Overcast
4:55 AM 50.0 °F 46.4 °F 87% 30.14 in 3.0 mi ENE 6.9 mph - N/A   Overcast
5:15 AM 50.0 °F 46.4 °F 87% 30.15 in 3.0 mi ENE 4.6 mph - N/A   Overcast
5:35 AM 50.0 °F 46.4 °F 87% 30.15 in 3.0 mi ENE 5.8 mph - N/A   Overcast
5:55 AM 50.0 °F 46.4 °F 87% 30.15 in 3.0 mi ENE 6.9 mph - N/A   Overcast
6:15 AM 50.0 °F 46.4 °F 87% 30.16 in 3.0 mi ENE 5.8 mph - N/A   Overcast
6:35 AM 50.0 °F 46.4 °F 87% 30.17 in 2.5 mi ENE 5.8 mph - N/A   Overcast
6:55 AM 51.8 °F 46.4 °F 82% 30.16 in 3.0 mi East 6.9 mph - N/A   Overcast
7:15 AM 51.8 °F 46.4 °F 82% 30.17 in 3.0 mi East 8.1 mph - N/A   Overcast
7:35 AM 51.8 °F 46.4 °F 82% 30.17 in 3.0 mi East 8.1 mph - N/A   Overcast
7:55 AM 51.8 °F 48.2 °F 88% 30.18 in 3.0 mi ENE 6.9 mph - N/A   Overcast
8:15 AM 53.6 °F 48.2 °F 82% 30.19 in 3.0 mi East 6.9 mph - N/A   Overcast
8:35 AM 53.6 °F 48.2 °F 82% 30.19 in 3.0 mi East 6.9 mph - N/A   Overcast
8:55 AM 53.6 °F 48.2 °F 82% 30.18 in 3.0 mi East 6.9 mph - N/A   Overcast
9:15 AM 55.4 °F 48.2 °F 77% 30.19 in 5.0 mi East 4.6 mph - N/A   Overcast
9:35 AM 55.4 °F 50.0 °F 82% 30.19 in 5.0 mi East 4.6 mph - N/A   Overcast
9:55 AM 55.4 °F 50.0 °F 82% 30.19 in 6.0 mi East 3.5 mph - N/A   Overcast
10:15 AM 57.2 °F 50.0 °F 77% 30.19 in 7.0 mi Calm Calm - N/A   Overcast
10:35 AM 57.2 °F 51.8 °F 82% 30.17 in 8.0 mi East 5.8 mph - N/A   Overcast
10:55 AM 60.8 °F 51.8 °F 72% 30.16 in 9.0 mi Calm Calm - N/A   Overcast
11:15 AM 60.8 °F 51.8 °F 72% 30.16 in 10.0 mi Calm Calm - N/A   Overcast
11:35 AM 62.6 °F 53.6 °F 72% 30.14 in 10.0 mi ESE 6.9 mph - N/A   Mostly Cloudy
11:55 AM 64.4 °F 53.6 °F 68% 30.13 in 10.0 mi Calm Calm - N/A   Overcast
12:15 PM 64.4 °F 55.4 °F 73% 30.12 in 10.0 mi ESE 6.9 mph - N/A   Overcast
12:35 PM 64.4 °F 55.4 °F 73% 30.11 in 10.0 mi SSE 6.9 mph - N/A   Overcast
12:55 PM 64.4 °F 55.4 °F 73% 30.10 in 10.0 mi ESE 5.8 mph - N/A   Overcast
1:15 PM 64.4 °F 55.4 °F 73% 30.10 in 10.0 mi SE 8.1 mph - N/A   Overcast
1:35 PM 66.2 °F 55.4 °F 68% 30.10 in 10.0 mi SSE 6.9 mph - N/A   Overcast
1:55 PM 66.2 °F 55.4 °F 68% 30.09 in 10.0 mi SE 6.9 mph - N/A   Overcast
2:15 PM 66.2 °F 55.4 °F 68% 30.08 in 10.0 mi SSE 9.2 mph - N/A   Overcast
2:35 PM 66.2 °F 55.4 °F 68% 30.08 in 10.0 mi SSE 8.1 mph - N/A   Overcast
2:55 PM 66.2 °F 55.4 °F 68% 30.08 in 10.0 mi SSE 8.1 mph - N/A   Overcast
3:15 PM 66.2 °F 55.4 °F 68% 30.07 in 10.0 mi SE 10.4 mph - N/A   Overcast
3:35 PM 66.2 °F 55.4 °F 68% 30.08 in 10.0 mi SE 9.2 mph - N/A   Overcast
3:55 PM 64.4 °F 55.4 °F 73% 30.08 in 10.0 mi SSE 9.2 mph - N/A   Overcast
4:15 PM 64.4 °F 53.6 °F 68% 30.09 in 10.0 mi SSE 10.4 mph - N/A   Overcast
4:35 PM 64.4 °F 53.6 °F 68% 30.08 in 10.0 mi SE 10.4 mph - N/A   Overcast
4:55 PM 64.4 °F 53.6 °F 68% 30.09 in 10.0 mi SE 8.1 mph - N/A   Overcast
5:15 PM 64.4 °F 53.6 °F 68% 30.09 in 10.0 mi SE 9.2 mph - N/A   Overcast
5:35 PM 62.6 °F 53.6 °F 72% 30.10 in 10.0 mi SE 9.2 mph - N/A   Overcast
5:55 PM 62.6 °F 53.6 °F 72% 30.10 in 10.0 mi SE 8.1 mph - N/A   Overcast
6:15 PM 62.6 °F 53.6 °F 72% 30.10 in 10.0 mi SE 9.2 mph - N/A   Overcast
6:35 PM 62.6 °F 53.6 °F 72% 30.11 in 10.0 mi ESE 6.9 mph - N/A   Overcast
6:55 PM 62.6 °F 53.6 °F 72% 30.10 in 10.0 mi East 6.9 mph - N/A   Overcast
7:15 PM 62.6 °F 53.6 °F 72% 30.10 in 10.0 mi East 6.9 mph - N/A   Overcast
7:35 PM 62.6 °F 53.6 °F 72% 30.11 in 10.0 mi ESE 5.8 mph - N/A   Overcast
7:55 PM 62.6 °F 53.6 °F 72% 30.12 in 10.0 mi NNE 5.8 mph - N/A   Overcast
8:15 PM 62.6 °F 53.6 °F 72% 30.13 in 10.0 mi NE 6.9 mph - N/A   Overcast
8:35 PM 62.6 °F 53.6 °F 72% 30.13 in 10.0 mi ENE 8.1 mph - N/A   Overcast
8:55 PM 60.8 °F 53.6 °F 77% 30.13 in 10.0 mi ENE 6.9 mph - N/A   Overcast
9:15 PM 60.8 °F 53.6 °F 77% 30.12 in 10.0 mi ENE 6.9 mph - N/A   Overcast
9:35 PM 60.8 °F 53.6 °F 77% 30.12 in 10.0 mi East 6.9 mph - N/A   Overcast
9:55 PM 60.8 °F 53.6 °F 77% 30.10 in 10.0 mi East 5.8 mph - N/A   Overcast
10:15 PM 60.8 °F 53.6 °F 77% 30.11 in 10.0 mi NE 4.6 mph - N/A   Overcast
10:35 PM 60.8 °F 53.6 °F 77% 30.10 in 10.0 mi NE 4.6 mph - N/A   Overcast
10:55 PM 60.8 °F 53.6 °F 77% 30.10 in 10.0 mi NE 3.5 mph - N/A   Overcast
11:15 PM 59.0 °F 53.6 °F 82% 30.09 in 10.0 mi North 5.8 mph - N/A   Overcast
11:35 PM 60.8 °F 53.6 °F 77% 30.09 in 10.0 mi Calm Calm - N/A   Overcast
11:55 PM 59.0 °F 53.6 °F 82% 30.07 in 10.0 mi Calm Calm - N/A   Overcast